GW4074 Weather Reports


Display with metric or nautical units.
time (UTC)temp
F
wind
direction
speed
MPH
gust
MPH
rain 1hr
in
rain 24hr
in
rain mn
in
humidity
%
barometer
mb
20260505075522 53 41 2.0 3.0 0.00 0.00 0.00 95 1012.2
20260505075019 53 43 3.0 3.0 0.00 0.00 0.00 95 1012.0
20260505074516 53 30 2.0 2.0 0.00 0.00 0.00 94 1012.2
20260505074013 54 29 2.0 2.0 0.00 0.00 0.00 94 1011.9
20260505073510 54 65 1.0 2.0 0.00 0.00 0.00 93 1011.9
20260505073009 55 95 1.0 2.0 0.00 0.00 0.00 92 1011.7
20260505072504 55 103 1.0 2.0 0.00 0.00 0.00 92 1012.0
20260505072000 55 43 2.0 2.0 0.00 0.00 0.00 92 1011.8
20260505071455 55 20 0.0 2.0 0.00 0.00 0.00 92 1011.8
20260505070954 55 22 2.0 2.0 0.00 0.00 0.00 92 1011.9
20260505070451 55 21 2.0 2.0 0.00 0.00 0.00 93 1011.8
20260505065946 54 53 2.0 2.0 0.00 0.00 0.00 93 1011.8
20260505065443 55 38 1.0 1.0 0.00 0.00 0.00 92 1011.7
20260505064940 55 87 0.0 2.0 0.00 0.00 0.00 91 1011.7
20260505064436 55 103 2.0 2.0 0.00 0.00 0.00 90 1011.6
20260505063935 56 83 1.0 2.0 0.00 0.00 0.00 89 1011.6
20260505063431 56 113 2.0 2.0 0.00 0.00 0.00 88 1011.7
20260505062928 57 114 2.0 2.0 0.00 0.00 0.00 88 1011.6
20260505062425 57 115 2.0 3.0 0.00 0.00 0.00 87 1011.5
20260505061921 57 108 2.0 2.0 0.00 0.00 0.00 85 1011.5
20260505061420 57 89 0.0 2.0 0.00 0.00 0.00 85 1011.4
20260505060917 57 46 1.0 2.0 0.00 0.00 0.00 84 1011.3
20260505060414 58 61 1.0 2.0 0.00 0.00 0.00 83 1011.3
20260505055910 58 52 0.0 2.0 0.00 0.00 0.00 83 1011.3
20260505055406 58 89 1.0 2.0 0.00 0.00 0.00 82 1011.4
20260505054903 58 67 2.0 2.0 0.00 0.00 0.00 82 1011.3
20260505054400 58 54 2.0 3.0 0.00 0.00 0.00 81 1011.2
20260505053859 59 23 2.0 2.0 0.00 0.00 0.00 79 1010.9
20260505053355 59 44 1.0 2.0 0.00 0.00 0.00 78 1011.2
20260505052852 59 79 1.0 1.0 0.00 0.00 0.00 79 1011.0
20260505052349 59 72 1.0 2.0 0.00 0.00 0.00 78 1011.0
20260505051846 60 43 2.0 2.0 0.00 0.00 0.00 77 1011.0
20260505051343 60 59 2.0 2.0 0.00 0.00 0.00 77 1011.1
20260505050842 59 56 1.0 2.0 0.00 0.00 0.00 77 1010.9
20260505050340 59 25 2.0 2.0 0.00 0.00 0.00 77 1010.9
20260505041306 61 115 1.0 2.0 0.00 0.00 0.00 73 1010.5
20260505040803 62 60 1.0 2.0 0.00 0.00 0.00 71 1010.3
20260505040301 62 34 2.0 2.0 0.00 0.00 0.00 71 1010.5
20260505035758 63 46 0.0 1.0 0.00 0.00 0.00 70 1010.2
20260505035254 63 109 2.0 2.0 0.00 0.00 0.00 69 1010.2
20260505034751 64 112 2.0 2.0 0.00 0.00 0.00 68 1010.3
20260505034248 64 73 2.0 2.0 0.00 0.00 0.00 67 1010.1
20260505033744 64 78 1.0 3.0 0.00 0.00 0.00 68 1010.2
20260505033242 64 89 1.0 3.0 0.00 0.00 0.00 68 1010.2
20260505032740 64 53 1.0 2.0 0.00 0.00 0.00 66 1010.0
20260505032236 64 11 1.0 2.0 0.00 0.00 0.00 66 1010.1
20260505031733 64 55 1.0 2.0 0.00 0.00 0.00 68 1010.0
20260505031229 64 43 1.0 1.0 0.00 0.00 0.00 66 1009.9
20260505030727 64 44 0.0 1.0 0.00 0.00 0.00 67 1010.1
20260505030223 65 32 0.0 1.0 0.00 0.00 0.00 66 1009.7
20260505025718 65 66 0.0 0.0 0.00 0.00 0.00 64 1010.0
20260505025217 65 77 0.0 1.0 0.00 0.00 0.00 62 1009.9
20260505024715 66 109 4.0 4.0 0.00 0.00 0.00 61 1009.9
20260505024211 68 139 1.0 2.0 0.00 0.00 0.00 58 1010.0
20260505023709 68 139 2.0 3.0 0.00 0.00 0.00 57 1009.8
20260505023206 68 139 2.0 4.0 0.00 0.00 0.00 57 1009.8
20260505022704 68 137 2.0 2.0 0.00 0.00 0.00 57 1009.8
20260505022200 68 139 2.0 3.0 0.00 0.00 0.00 57 1009.9
20260505021656 68 135 3.0 3.0 0.00 0.00 0.00 56 1009.9
20260505021153 67 154 2.0 3.0 0.00 0.00 0.00 58 1009.9
20260505020649 67 147 2.0 3.0 0.00 0.00 0.00 60 1010.0
20260505020145 68 153 2.0 3.0 0.00 0.00 0.00 59 1010.0
20260505015642 68 143 2.0 4.0 0.00 0.00 0.00 58 1010.0
20260505015139 68 166 0.0 3.0 0.00 0.00 0.00 58 1010.4
20260505014636 68 128 2.0 2.0 0.00 0.00 0.00 57 1010.2
20260505014133 68 153 2.0 2.0 0.00 0.00 0.00 57 1010.3
20260505013630 68 140 0.0 2.0 0.00 0.00 0.00 56 1010.2
20260505013127 68 170 3.0 4.0 0.00 0.00 0.00 55 1010.3
20260505012626 69 128 2.0 2.0 0.00 0.00 0.00 58 1010.3
20260505012122 69 129 2.0 3.0 0.00 0.00 0.00 56 1010.3
20260505011618 68 150 2.0 3.0 0.00 0.00 0.00 56 1010.4
20260505011115 68 169 2.0 4.0 0.00 0.00 0.00 55 1010.5
20260505010610 68 158 3.0 4.0 0.00 0.00 0.00 56 1010.5
20260505010107 68 168 3.0 4.0 0.00 0.00 0.00 56 1010.5
20260505005603 69 168 2.0 4.0 0.00 0.00 0.00 55 1010.5
20260505005101 70 173 3.0 4.0 0.00 0.00 0.00 53 1010.8
20260505004557 71 173 3.0 3.0 0.00 0.00 0.00 53 1010.5
20260505004054 70 176 3.0 4.0 0.00 0.00 0.00 52 1010.7
20260505003552 72 179 4.0 4.0 0.00 0.00 0.00 51 1010.8
20260505003049 71 178 2.0 3.0 0.00 0.00 0.00 51 1010.7
20260505002543 71 175 4.0 4.0 0.00 0.00 0.00 52 1010.7
20260505002043 72 153 2.0 3.0 0.00 0.00 0.00 52 1010.3
20260505001540 71 174 1.0 5.0 0.00 0.00 0.00 52 1010.4
20260505001037 71 138 4.0 4.0 0.00 0.00 0.00 52 1010.5
20260505000534 71 125 3.0 3.0 0.00 0.00 0.00 51 1010.5
20260505000032 72 143 3.0 4.0 0.00 0.00 0.00 52 1010.7
20260504235528 72 136 4.0 4.0 0.00 0.00 0.00 52 1010.5
20260504235025 73 123 3.0 4.0 0.00 0.00 0.00 50 1010.3
20260504234522 73 191 5.0 6.0 0.00 0.00 0.00 49 1010.3
20260504234019 73 131 4.0 4.0 0.00 0.00 0.00 49 1010.4
20260504233514 73 173 2.0 4.0 0.00 0.00 0.00 48 1010.5
20260504233011 73 132 3.0 4.0 0.00 0.00 0.00 49 1010.7
20260504232508 72 139 2.0 3.0 0.00 0.00 0.00 49 1010.4
20260504232006 73 138 2.0 3.0 0.00 0.00 0.00 47 1010.3
20260504231502 74 117 2.0 4.0 0.00 0.00 0.00 46 1010.5
20260504230958 74 125 2.0 4.0 0.00 0.00 0.00 45 1010.7
20260504230455 74 134 3.0 4.0 0.00 0.00 0.00 46 1010.3
20260504225954 75 122 3.0 4.0 0.00 0.00 0.00 45 1010.3
20260504225450 75 121 3.0 4.0 0.00 0.00 0.00 44 1010.7
20260504224947 75 197 0.0 3.0 0.00 0.00 0.00 43 1010.7
20260504224444 75 190 0.0 4.0 0.00 0.00 0.00 43 1010.9
20260504223941 75 157 3.0 5.0 0.00 0.00 0.00 43 1010.5
20260504223437 77 144 2.0 3.0 0.00 0.00 0.00 41 1010.7
20260504222933 77 122 4.0 4.0 0.00 0.00 0.00 42 1010.7
20260504222431 79 145 2.0 4.0 0.00 0.00 0.00 38 1010.7
20260504221928 78 180 1.0 4.0 0.00 0.00 0.00 38 1010.8
20260504221425 79 181 4.0 5.0 0.00 0.00 0.00 36 1010.9
20260504220922 77 120 2.0 3.0 0.00 0.00 0.00 39 1010.8
20260504220419 77 60 1.0 4.0 0.00 0.00 0.00 37 1011.0
20260504215916 77 134 2.0 5.0 0.00 0.00 0.00 39 1011.0
20260504215412 77 131 2.0 5.0 0.00 0.00 0.00 39 1011.2
20260504214909 78 147 2.0 2.0 0.00 0.00 0.00 39 1011.1
20260504214405 78 131 3.0 4.0 0.00 0.00 0.00 39 1010.8
20260504213902 77 190 3.0 4.0 0.00 0.00 0.00 40 1010.9
20260504213358 79 197 2.0 3.0 0.00 0.00 0.00 38 1011.0
20260504212855 78 236 1.0 4.0 0.00 0.00 0.00 39 1011.2
20260504212351 77 110 2.0 5.0 0.00 0.00 0.00 41 1011.2
20260504211849 76 137 2.0 3.0 0.00 0.00 0.00 42 1011.0
20260504211345 77 110 4.0 5.0 0.00 0.00 0.00 40 1011.2
20260504210843 78 145 2.0 4.0 0.00 0.00 0.00 41 1011.0
20260504210340 77 303 1.0 3.0 0.00 0.00 0.00 41 1011.1
20260504205837 76 185 2.0 6.0 0.00 0.00 0.00 41 1011.0
20260504205334 78 224 1.0 4.0 0.00 0.00 0.00 41 1011.1
20260504204832 78 192 4.0 5.0 0.00 0.00 0.00 41 1011.0
20260504204331 77 152 1.0 5.0 0.00 0.00 0.00 40 1011.1
20260504203830 77 158 1.0 5.0 0.00 0.00 0.00 38 1011.3
20260504203326 77 153 1.0 3.0 0.00 0.00 0.00 41 1011.3
20260504202822 78 187 5.0 5.0 0.00 0.00 0.00 37 1011.3
20260504202320 80 159 2.0 3.0 0.00 0.00 0.00 30 1011.0
20260504201816 79 136 2.0 3.0 0.00 0.00 0.00 35 1011.3
20260504201313 78 28 0.0 3.0 0.00 0.00 0.00 32 1011.1
20260504200811 78 283 3.0 4.0 0.00 0.00 0.00 32 1011.1
20260504200307 76 3 0.0 5.0 0.00 0.00 0.00 42 1011.2
20260504195803 78 147 2.0 2.0 0.00 0.00 0.00 39 1011.0
20260504195259 77 147 0.0 2.0 0.00 0.00 0.00 40 1011.0
20260504194756 77 145 2.0 3.0 0.00 0.00 0.00 41 1011.1
20260504194252 78 193 2.0 4.0 0.00 0.00 0.00 40 1011.2
20260504193749 77 191 1.0 2.0 0.00 0.00 0.00 39 1011.2
20260504193246 77 112 4.0 4.0 0.00 0.00 0.00 38 1011.0
20260504192744 77 325 0.0 2.0 0.00 0.00 0.00 38 1011.1
20260504192242 76 349 2.0 4.0 0.00 0.00 0.00 36 1011.1
20260504191741 76 283 2.0 8.0 0.00 0.00 0.00 39 1011.0
20260504191237 76 87 1.0 5.0 0.00 0.00 0.00 34 1011.0
20260504190732 77 4 2.0 3.0 0.00 0.00 0.00 40 1011.1
20260504190229 75 108 2.0 2.0 0.00 0.00 0.00 44 1011.0
20260504185726 74 174 4.0 5.0 0.00 0.00 0.00 44 1011.1
20260504185223 74 195 5.0 5.0 0.00 0.00 0.00 44 1011.2
20260504184719 74 138 2.0 6.0 0.00 0.00 0.00 46 1011.0
20260504184215 75 192 2.0 5.0 0.00 0.00 0.00 43 1011.1
20260504183711 74 230 3.0 4.0 0.00 0.00 0.00 45 1011.2
20260504183208 75 199 3.0 4.0 0.00 0.00 0.00 47 1011.1
20260504182706 74 185 2.0 2.0 0.00 0.00 0.00 47 1011.4
20260504182203 73 144 4.0 4.0 0.00 0.00 0.00 47 1011.4
20260504181700 72 180 1.0 5.0 0.00 0.00 0.00 47 1011.3
20260504181158 73 171 2.0 4.0 0.00 0.00 0.00 45 1011.2
20260504180657 73 180 3.0 6.0 0.00 0.00 0.00 44 1011.1
20260504180155 72 168 2.0 6.0 0.00 0.00 0.00 44 1011.2
20260504175652 72 122 2.0 4.0 0.00 0.00 0.00 48 1011.1
20260504175148 72 180 0.0 3.0 0.00 0.00 0.00 47 1010.9
20260504174647 71 126 4.0 5.0 0.00 0.00 0.00 48 1011.2
20260504174143 72 148 2.0 4.0 0.00 0.00 0.00 47 1011.0
20260504173640 71 116 2.0 3.0 0.00 0.00 0.00 50 1010.9
20260504173138 71 168 2.0 4.0 0.00 0.00 0.00 48 1011.0
20260504172634 71 139 3.0 6.0 0.00 0.00 0.00 48 1010.9
20260504172131 73 52 3.0 3.0 0.00 0.00 0.00 42 1011.1
20260504171627 72 149 2.0 6.0 0.00 0.00 0.00 41 1011.0
20260504171125 72 205 1.0 3.0 0.00 0.00 0.00 48 1011.1
20260504170620 72 227 0.0 2.0 0.00 0.00 0.00 40 1011.0
20260504170118 72 135 0.0 4.0 0.00 0.00 0.00 41 1011.1
20260504151004 66 89 0.0 7.0 0.00 0.00 0.00 48 1010.4
20260504150501 66 121 5.0 5.0 0.00 0.00 0.00 48 1010.4
20260504140922 65 119 4.0 7.0 0.00 0.00 0.00 49 1010.1
20260504140418 64 107 2.0 4.0 0.00 0.00 0.00 50 1010.1
20260504130344 62 115 2.0 4.0 0.00 0.00 0.00 39 1009.7
20260504120306 63 359 2.0 2.0 0.00 0.00 0.00 39 1009.8
20260504110230 65 359 1.0 2.0 0.00 0.00 0.00 33 1010.1
20260504100147 63 19 2.0 3.0 0.00 0.00 0.00 40 1009.9
20260504090110 67 299 0.0 3.0 0.00 0.00 0.00 33 1010.0
20260504081540 66 34 3.0 4.0 0.00 0.00 0.00 37 1010.0
20260504081036 66 6 3.0 4.0 0.00 0.00 0.00 37 1009.8
20260504080533 67 350 2.0 3.0 0.00 0.00 0.00 36 1009.9